Regional Weather Roundup
Issued by NWS

Home | Current Version | Previous Version | Graphics & Text | Print | Product List | Glossary On
Versions: 1 2 3 4 5 6 7 8 9 10 11 12 13 14 15 16 17 18 19 20 21 22 23 24 25 26 27 28 29 30 31 32 33 34 35 36 37 38 39 40 41 42 43 44 45 46 47 48 49 50
000
ASUS43 KFSD 301302
RWRSD

WEATHER ROUNDUP FOR SOUTH DAKOTA
NATIONAL WEATHER SERVICE SIOUX FALLS SD
800 AM CDT SUN AUG 30 2015

NOTE: "FAIR" INDICATES FEW OR NO CLOUDS BELOW 12,000 FEET WITH NO
SIGNIFICANT WEATHER AND/OR OBSTRUCTIONS TO VISIBILITY.


SDZ001>005-009-010-012>017-301400-
NORTHWEST AND NORTH CENTRAL SOUTH DAKOTA

CITY           SKY/WX    TMP DP  RH WIND       PRES   REMARKS
FAITH            N/A     59  48  67 S17       29.78S
MOBRIDGE       MOCLDY    67  62  84 SE14      29.78R
$$

SDZ012>016-024>037-041>051-057-063-072>074-301400-
SOUTHWEST AND SOUTH CENTRAL SOUTH DAKOTA

CITY           SKY/WX    TMP DP  RH WIND       PRES   REMARKS
RAPID CTY ARPT CLEAR     61  48  62 SE6       29.84S
PIERRE         CLEAR     67  56  67 S8        29.82S
CUSTER         PTCLDY    60  41  49 W3        30.03S
ELLSWORTH AFB  CLEAR     66  47  50 S9        29.83R
PHILIP         PTCLDY    70  49  47 S13       29.82F
PINE RIDGE     PTCLDY    66  43  43 VRB5      29.92S
WINNER         FAIR      69  55  60 S18       29.89S
$$

SDZ004>011-016>023-039-040-301400-
NORTHEAST SOUTH DAKOTA

CITY           SKY/WX    TMP DP  RH WIND       PRES   REMARKS
ABERDEEN       SUNNY     65  62  90 S12       29.85S
WATERTOWN      SUNNY     62  60  93 S14       29.93S
BROOKINGS      CLOUDY    61  57  88 S14       29.99S
$$

SDZ017-020-022-023-036>040-048>070-301400-
SOUTHEAST SOUTH DAKOTA

CITY           SKY/WX    TMP DP  RH WIND       PRES   REMARKS
SIOUX FALLS    FOG       62  61  96 S8        30.00S VSB 3/4
HURON          SUNNY     63  62  97 SE14      29.89R
CHAMBERLAIN    SUNNY     65  59  81 S6        29.89S
MITCHELL       CLOUDY    63  63 100 S15       29.94S FOG
YANKTON        CLOUDY    64  63  94 SE8       29.98S
$$

ABBREVIATIONS USED IN REMARKS
   TC - TEMPERATURE IN CELSIUS
  WCI - WIND CHILL INDEX
   HX - HEAT INDEX
  VSB - VISIBILITY




USA.gov is the U.S. government's official web portal to all federal, state and local government web resources and services.